Location: ????????
(55.0808°N, 38.5463°E)
Time: 02:29:49
(UTC+00:00)

Nimbus 3 Rocket - Pass Details

Date: 26 September 2024
Orbit: 1072 x 1131 km, 99.9° (Epoch: 03 October)

Event Time Altitude Azimuth Distance (km) Brightness Sun altitude
Rises 19:27:21 0° 26° (NNE) 3,899 8.5 -32.1°
Reaches altitude 10° 19:31:46 10° 54° (NE) 2,927 7.5 -32.5°
Enters shadow 19:32:39 11° 61° (ENE) 2,816 7.4 -32.5°
